Location: Little Maitland River
(43.8022°N, 81.1549°W)
Time: 15:27:27
(UTC+00:00)

USA 215 - Pass Details

Date: 09 December 2025
Orbit: 1098 x 1109 km, 123.0° (Epoch: 10 January)

Event Time Altitude Azimuth Distance (km) Brightness Sun altitude
Exits shadow 00:29:21 40° 16° (NNE) 1,573 3.8 -28.4°
Drops below altitude 10° 00:35:04 10° 316° (NW) 2,963 6.0 -29.4°
Sets 00:37:41 0° 309° (NW) 3,921 6.8 -29.9°
